Darstellungsparameter: Aktuell verwendete Einstellungen:
Skalierung der Graphiken ... ?
xyx+y,   Skalierungsfaktor:      Skalierung: Modus: x, Faktor: 1
Darstellungszeitraum ... ?
Vom - - bis: - -   Zeitraum: 24.10.2021 - 24.10.2021
Min/Max/Avg-Anzeige ... ?
Zeige MMA aktuell
Zeige MMA Monat
Zeige MMA alles
Zeige --A aktuell
Zeige --A Monat
Zeige --A alles
Keine MMA-Anzeige
MMA:
Average (ber die Originaldaten)
MMA-Basis: 17.04.2019 - 19.05.2019
Quicknavigation für Darstellung... ?
Tage:      1T, 2T, 3T, 5T -1T -2T -3T -5T +1T +2T +3T +5T
Wochen: 1W, 2W, 3W -1W -2W -3W +1W +2W +3W
Monate: 1M, 3M, 6M -1M -3M -6M +1M +3M +6M
Jahre:    1J, 3J, 5J, 10J -1J -3J -5J -10J +1J +3J +5J +10J
Nutze für die Darstellung ... ?
Originaldaten oder Mittelwerte auf ...
Stundenbasis Tagesbasis Wochenbasis
Monatsbasis Jahresbasis      Datenbasis: Original-Daten
Darstellen als:
Statistik (Auto) Statistik J:M      Darstellung:

Der gewünschte Datumsbereich war nicht gültig/verfügbar und wurde korrigiert....
Das angegebene Enddatum (18.05.2028 23:59:59) liegt in der Zukunft.
Das angegebene Startdatum (19.02.2028 00:00:00) liegt in der Zukunft.


Zur Graphik,    zurück zur Übersicht aller Sensoren.
 
Tabellarische Datenbersicht: ?
 
Sensor: Nr:Datum:Temp:Abs-Feuchte:Windchill:Wind:
Aussen-T/F 1 24-10-2021 02:00:00 3.7 C 5.98 g/m*3 3.7 C 0 km/h
2 24-10-2021 02:05:00 3.8 C 6.02 g/m*3 3.8 C 0 km/h
3 24-10-2021 02:10:00 3.9 C 6.06 g/m*3 3.9 C 0 km/h
4 24-10-2021 02:15:00 4 C 6.1 g/m*3 4 C 0 km/h
5 24-10-2021 02:20:00 4.1 C 6.14 g/m*3 4.1 C 0 km/h
6 24-10-2021 02:25:00 4.2 C 6.19 g/m*3 4.2 C 0 km/h
7 24-10-2021 02:30:00 4.3 C 6.23 g/m*3 4.3 C 0 km/h
8 24-10-2021 02:35:00 4.4 C 6.27 g/m*3 4.4 C 0 km/h
9 24-10-2021 02:40:00 4.5 C 6.31 g/m*3 4.5 C 0 km/h
10 24-10-2021 02:45:00 4.6 C 6.35 g/m*3 4.6 C 0 km/h
11 24-10-2021 02:50:00 4.6 C 6.35 g/m*3 4.6 C 0 km/h
12 24-10-2021 02:55:00 4.7 C 6.39 g/m*3 4.7 C 0 km/h
13 24-10-2021 03:00:00 4.6 C 6.35 g/m*3 4.6 C 0 km/h
14 24-10-2021 03:05:00 4.6 C 6.35 g/m*3 4.6 C 0 km/h
15 24-10-2021 03:10:00 4.6 C 6.35 g/m*3 4.6 C 0 km/h
16 24-10-2021 03:15:00 4.6 C 6.35 g/m*3 4.6 C 0 km/h
17 24-10-2021 03:20:00 4.6 C 6.35 g/m*3 4.6 C 0 km/h
18 24-10-2021 03:25:00 4.5 C 6.31 g/m*3 4.5 C 1.6 km/h
19 24-10-2021 03:30:00 4.4 C 6.27 g/m*3 4.4 C 0 km/h
20 24-10-2021 03:35:00 4.4 C 6.27 g/m*3 4.4 C 0 km/h
21 24-10-2021 03:40:00 4.4 C 6.27 g/m*3 4.4 C 0 km/h
22 24-10-2021 03:45:00 4.4 C 6.27 g/m*3 4.4 C 0 km/h
23 24-10-2021 03:50:00 4.4 C 6.27 g/m*3 4.4 C 0 km/h
24 24-10-2021 03:55:00 4.3 C 6.23 g/m*3 4.3 C 0 km/h
25 24-10-2021 04:00:00 4.3 C 6.23 g/m*3 4.3 C 0 km/h
Sensor: Nr:Datum:Temp:Abs-Feuchte:Windchill:Wind:
Aussen-T/F 26 24-10-2021 04:05:00 4.3 C 6.23 g/m*3 4.3 C 0 km/h
27 24-10-2021 04:10:00 4.2 C 6.19 g/m*3 4.2 C 0 km/h
28 24-10-2021 04:15:00 4.2 C 6.19 g/m*3 4.2 C 0 km/h
29 24-10-2021 04:20:00 4.2 C 6.19 g/m*3 4.2 C 0 km/h
30 24-10-2021 04:25:00 4.2 C 6.19 g/m*3 4.2 C 0 km/h
31 24-10-2021 04:30:00 4.2 C 6.19 g/m*3 4.2 C 3.2 km/h
32 24-10-2021 04:35:00 4.2 C 6.19 g/m*3 4.2 C 0 km/h
33 24-10-2021 04:40:00 4.1 C 6.14 g/m*3 4.1 C 1.6 km/h
34 24-10-2021 04:45:00 4.1 C 6.14 g/m*3 4.1 C 0 km/h
35 24-10-2021 04:50:00 4 C 6.1 g/m*3 4 C 0 km/h
36 24-10-2021 04:55:00 4 C 6.1 g/m*3 4 C 0 km/h
37 24-10-2021 05:00:00 4 C 6.1 g/m*3 4 C 1.6 km/h
38 24-10-2021 05:05:00 4 C 6.1 g/m*3 4 C 0 km/h
39 24-10-2021 05:10:00 3.9 C 6.06 g/m*3 3.9 C 0 km/h
40 24-10-2021 05:15:00 3.9 C 6.06 g/m*3 3.9 C 1.6 km/h
41 24-10-2021 05:20:00 3.8 C 6.02 g/m*3 3.8 C 1.6 km/h
42 24-10-2021 05:25:00 3.8 C 6.02 g/m*3 3.8 C 1.6 km/h
43 24-10-2021 05:30:00 3.7 C 5.98 g/m*3 3.7 C 0 km/h
44 24-10-2021 05:35:00 3.6 C 5.94 g/m*3 3.6 C 1.6 km/h
45 24-10-2021 05:40:00 3.5 C 5.9 g/m*3 3.5 C 1.6 km/h
46 24-10-2021 05:45:00 3.4 C 5.86 g/m*3 3.4 C 0 km/h
47 24-10-2021 05:50:00 3.3 C 5.82 g/m*3 3.3 C 0 km/h
48 24-10-2021 05:55:00 3.3 C 5.82 g/m*3 3.3 C 0 km/h
49 24-10-2021 06:00:00 3.3 C 5.82 g/m*3 3.3 C 0 km/h
50 24-10-2021 06:05:00 3.2 C 5.79 g/m*3 3.2 C 3.2 km/h
Sensor: Nr:Datum:Temp:Abs-Feuchte:Windchill:Wind:
Aussen-T/F 51 24-10-2021 06:10:00 3.2 C 5.79 g/m*3 3.2 C 1.6 km/h
52 24-10-2021 06:15:00 3.1 C 5.75 g/m*3 3.1 C 0 km/h
53 24-10-2021 06:20:00 3.1 C 5.75 g/m*3 3.1 C 0 km/h
54 24-10-2021 06:25:00 3 C 5.71 g/m*3 3 C 0 km/h
55 24-10-2021 06:30:00 3 C 5.71 g/m*3 3 C 0 km/h
56 24-10-2021 06:35:00 2.9 C 5.67 g/m*3 2.9 C 1.6 km/h
57 24-10-2021 06:40:00 2.9 C 5.67 g/m*3 2.9 C 0 km/h
58 24-10-2021 06:45:00 2.8 C 5.63 g/m*3 2.8 C 0 km/h
59 24-10-2021 06:50:00 2.8 C 5.63 g/m*3 2.8 C 0 km/h
60 24-10-2021 06:55:00 2.7 C 5.59 g/m*3 2.7 C 0 km/h
61 24-10-2021 07:00:00 2.7 C 5.59 g/m*3 2.7 C 0 km/h
62 24-10-2021 07:05:00 2.7 C 5.59 g/m*3 2.7 C 0 km/h
63 24-10-2021 07:10:00 2.7 C 5.59 g/m*3 2.7 C 0 km/h
64 24-10-2021 07:15:00 2.7 C 5.59 g/m*3 2.7 C 0 km/h
65 24-10-2021 07:20:00 2.6 C 5.56 g/m*3 2.6 C 0 km/h
66 24-10-2021 07:25:00 2.6 C 5.56 g/m*3 2.6 C 0 km/h
67 24-10-2021 07:30:00 2.6 C 5.56 g/m*3 2.6 C 0 km/h
68 24-10-2021 07:35:00 2.5 C 5.52 g/m*3 2.5 C 0 km/h
69 24-10-2021 07:40:00 2.4 C 5.48 g/m*3 2.4 C 0 km/h
70 24-10-2021 07:45:00 2.4 C 5.48 g/m*3 2.4 C 0 km/h
71 24-10-2021 07:50:00 2.4 C 5.48 g/m*3 2.4 C 0 km/h
72 24-10-2021 07:55:00 2.4 C 5.48 g/m*3 2.4 C 0 km/h
73 24-10-2021 08:00:00 2.4 C 5.48 g/m*3 2.4 C 0 km/h
74 24-10-2021 08:05:00 2.4 C 5.48 g/m*3 2.4 C 0 km/h
75 24-10-2021 08:10:00 2.4 C 5.48 g/m*3 2.4 C 0 km/h
Sensor: Nr:Datum:Temp:Abs-Feuchte:Windchill:Wind:
Aussen-T/F 76 24-10-2021 08:15:00 2.3 C 5.44 g/m*3 2.3 C 0 km/h
77 24-10-2021 08:20:00 2.2 C 5.41 g/m*3 2.2 C 0 km/h
78 24-10-2021 08:25:00 2.1 C 5.37 g/m*3 2.1 C 0 km/h
79 24-10-2021 08:30:00 2 C 5.33 g/m*3 2 C 0 km/h
80 24-10-2021 08:35:00 1.9 C 5.3 g/m*3 1.9 C 0 km/h
81 24-10-2021 08:40:00 1.8 C 5.26 g/m*3 1.8 C 0 km/h
82 24-10-2021 08:45:00 1.8 C 5.26 g/m*3 1.8 C 0 km/h
83 24-10-2021 08:50:00 1.7 C 5.23 g/m*3 1.7 C 0 km/h
84 24-10-2021 08:55:00 1.6 C 5.19 g/m*3 1.6 C 0 km/h
85 24-10-2021 09:00:00 1.6 C 5.19 g/m*3 1.6 C 0 km/h
86 24-10-2021 09:05:00 1.5 C 5.16 g/m*3 1.5 C 0 km/h
87 24-10-2021 09:10:00 1.5 C 5.16 g/m*3 1.5 C 0 km/h
88 24-10-2021 09:15:00 1.5 C 5.16 g/m*3 1.5 C 0 km/h
89 24-10-2021 09:20:00 1.6 C 5.19 g/m*3 1.6 C 0 km/h
90 24-10-2021 09:25:00 1.6 C 5.19 g/m*3 1.6 C 0 km/h
91 24-10-2021 09:30:00 1.6 C 5.19 g/m*3 1.6 C 0 km/h
92 24-10-2021 09:35:00 1.6 C 5.19 g/m*3 1.6 C 0 km/h
93 24-10-2021 09:40:00 1.6 C 5.19 g/m*3 1.6 C 0 km/h
94 24-10-2021 09:45:00 1.6 C 5.19 g/m*3 1.6 C 0 km/h
95 24-10-2021 09:50:00 1.7 C 5.23 g/m*3 1.7 C 0 km/h
96 24-10-2021 09:55:00 1.7 C 5.23 g/m*3 1.7 C 0 km/h
97 24-10-2021 10:00:00 1.7 C 5.23 g/m*3 1.7 C 0 km/h
98 24-10-2021 10:05:00 1.7 C 5.23 g/m*3 1.7 C 0 km/h
99 24-10-2021 10:10:00 1.8 C 5.26 g/m*3 1.8 C 0 km/h
100 24-10-2021 10:15:00 1.8 C 5.26 g/m*3 1.8 C 0 km/h
Sensor: Nr:Datum:Temp:Abs-Feuchte:Windchill:Wind:
Aussen-T/F 101 24-10-2021 10:20:00 1.8 C 5.26 g/m*3 1.8 C 0 km/h
102 24-10-2021 10:25:00 1.8 C 5.32 g/m*3 1.8 C 0 km/h
103 24-10-2021 10:30:00 1.9 C 5.35 g/m*3 1.9 C 0 km/h
104 24-10-2021 10:35:00 2 C 5.39 g/m*3 2 C 0 km/h
105 24-10-2021 10:40:00 2.2 C 5.46 g/m*3 2.2 C 0 km/h
106 24-10-2021 10:45:00 2.3 C 5.5 g/m*3 2.3 C 0 km/h
107 24-10-2021 10:50:00 2.5 C 5.58 g/m*3 2.5 C 0 km/h
108 24-10-2021 10:55:00 2.7 C 5.65 g/m*3 2.7 C 0 km/h
109 24-10-2021 11:00:00 2.8 C 5.69 g/m*3 2.8 C 0 km/h
110 24-10-2021 11:05:00 2.9 C 5.73 g/m*3 2.9 C 0 km/h
111 24-10-2021 11:10:00 3 C 5.77 g/m*3 3 C 0 km/h

Legende:
   Min
   Max


Maximal/Minimal-Werte vom 17.04.2019 - 19.05.2019

Sensor Min Max Avg
Temp
(Aussen-T/F)
2.2 °C
13-05-2019  06:50:00
26.6 °C
24-04-2019  17:05:00
11.51 °C

Die Daten stammen von einer Davis Vantage Pro 2 Wetter-Station und werden unter Linux mit der Software wview2wettercgi und aufbereitet. Alle Angaben erfolgen ohne Gewähr für ihre Vollständigkeit oder Richtigkeit.
Kontakt: Rainer Krienke krienke@uni-koblenz.de . Meine Webseiten an der Uni Koblenz oder privat.
Version: $Revision: 0.78 $